Find Orsted

NORAD ID: 25635 Int'l Des: 1999-008 Owner: DMI Country: DK operational
LEORETROGRADE

当前视图

正在加载3D地球...

About Orsted

Orsted (NORAD 25635) is a satellite launched Feb 23, 1999 by DMI of DK. It operates in LEO, RETROGRADE orbit with a mass of 62.00 kg.

即将过境

Passes for default location (London). Set your location on the main map for personalized predictions.

高度历史

Loading altitude history...

两行轨道根数

1 25635U 99008B 26194.71606407 .00000307 00000-0 74792-4 0 9993
2 25635 96.4803 96.2026 0133529 101.4391 260.1841 14.51831435445819
Epoch: Jul 13, 2026 • Age: 13 hours

当前状态

高度 791.4 km
远地点 / 近地点 N/A
速度 7.43 km/s
星下点 -45.20°S, 108.83°W
发射日期 Feb 23, 1999
运行时间 27.3 years
类型 other

技术详情

分类 Payload
质量 62.00 kg
干质量 62.00 kg
总质量 62.00 kg
长度 0.80 m
直径 0.50 m
跨度 8.00 m
形状 Box + Ant
制造商 TERMAB
平台类型 Orsted
阶段状态 In Orbit
所有者/国家 DMI/DK

Most Searched